COSMOS 873

Satellite information

Favourite Embed

Satellite Type and Status

PAYLOADIN ORBIT

Key statistics

Satellite COSMOS 873 at a glance.

Uptime

17859

Days in orbit

Revolutions

≈ 12.5

Per day

Orbit

LEO

Low Earth Orbit

Inclination

74.0

Latest

Satellite identification and parameters

Extended collection of information and parameters for COSMOS 873.

Object identification

Identified? True

Debris? False

Object name: COSMOS 873

International designator: 1976-118C

Object number (NORAD): 9590

Object ID (CCSDS): 9590

Country: COMMONWEALTH OF INDEPENDENT STATES (CIS)

Current information (Y/N): Y

RCS size: MEDIUM

Orbital parameters

Period: 115.532 minutes

Inclination: 74.0301 deg

SMA: 7857.673 km

Apoapsis: 1495.998 km

Periapsis: 1463.077 km

RAAN: 73.9213 deg

Eccentricy: 0.00209478

Argument of periapsis: 242.0752 deg

Mean anomaly: 274.2947 deg

Mean motion: 12.46412712 rev/day

Mean motion (dot): 0.00000005 rev/day2

B* drag term: 0.00014567479 1/REarth

Two-line elements (TLE)

Creation date: Oct. 30, 2025, 3:32 a.m.

Reference frame: TEME

Reference center: EARTH

Epoch: Oct. 29, 2025, 8:17 p.m. UTC

TLE line 0: 0 COSMOS 873

TLE line 1: 1 09590U 76118C 25302.84565176 .00000005 00000-0 14567-3 0 9991

TLE line 2: 2 09590 74.0301 73.9213 0020948 242.0752 274.2947 12.46412712224654

Live tracking on map

Real-time ground track for satellite COSMOS 873.

In-orbit conjunctions

A list of the most updated potential collisions computed for object COSMOS 873.

Target Orbit TCA Probability of collision Miss distance Type
COSMOS 886 DEB MEO 2024-11-13 05:34:24 0.0001110944 541.0 (m) DEBRIS
COSMOS 1823 DEB LEO 2024-06-17 13:39:42 0.00038649 372.0 (m) DEBRIS

Associated space launch

Military communications satellites

COSMOS 873 was lifted into orbit during the mission ‘Kosmos-3M | Strela-1M 121-128’, on board a Kosmos-3M space rocket.

The launch took place on Dec. 7, 1976, 10:23 a.m. from 132/1 (132L).

For more information about the launch, click the button.

Launch to space Kosmos-3M | Strela-1M 121-128
Kosmos-3M | Strela-1M 121-128

Agency: N/A

Status: Launch Successful

Launch date: Dec. 7, 1976, 10:23 a.m. UTC

Rocket: Kosmos-3M

Launch pad: 132/1 (132L)

Location: Plesetsk Cosmodrome, Russian Federation

...

Latest news about this satellite

There are no fresh news available about this satellite. Check back as we update our databases every day.


Newsletter sign-up

Weekly statistics, charts and insights to help you stay on top of the space industry.